Regional Weather Roundup
Issued by NWS Nashville, TN

Home | Current Version | Previous Version | Text Only | Print | Product List | Glossary On
Versions: 1 2 3 4 5 6 7 8 9 10 11 12 13 14 15 16 17 18 19 20 21 22 23 24 25 26 27 28 29 30 31 32 33 34 35 36 37 38 39 40 41 42 43 44 45 46 47 48 49 50
000
ASUS44 KOHX 240210
RWROHX
MIDDLE TENNESSEE HOURLY WEATHER ROUNDUP
NATIONAL WEATHER SERVICE NASHVILLE TN
900 PM CDT FRI JUN 23 2017

NOTE: "FAIR" INDICATES FEW OR NO CLOUDS BELOW 12,000 FEET WITH
NO SIGNIFICANT WEATHER AND/OR OBSTRUCTIONS TO VISIBILITY.

* THESE REPORTS ARE NOT UNDER NWS QUALITY CONTROL AND MAY NOT
  REPORT WEATHER SUCH AS PRECIPITATION AND FOG.


TNZ005>011-023>034-057-059-062>066-078-080-240300
...NORTHERN MIDDLE TENNESSEE...

CITY           SKY/WX    TMP DP  RH WIND       PRES   REMARKS
CLARKSVILLE    MOCLDY    75  68  78 NW10      29.84R
CROSSVILLE     CLOUDY    72  70  93 W9G17     29.94R
GALLATIN       CLOUDY    77  73  88 CALM      29.87R
NASHVILLE      MOCLDY    78  74  87 SW5       29.86R
PORTLAND         N/A     77  73  88 S6        29.84R
SMYRNA         PTCLDY    77  74  90 S3        29.87R FOG
SPARTA         CLOUDY    73  73 100 SW8       29.89R
SPRINGFIELD    MOCLDY    77  73  88 SW3       29.83R
WEST NASHVILLE MOCLDY    79  75  89 SW7       29.82R
$$
TNZ056-058-060-061-075>077-079-093>097-240300
...SOUTHERN MIDDLE TENNESSEE...

CITY           SKY/WX    TMP DP  RH WIND       PRES   REMARKS
COLUMBIA       PTCLDY    75  75 100 S10       29.86R
FAYETTEVILLE   CLOUDY    73  73 100 SW6       29.93R
MCMINNVILLE    CLEAR     73  73 100 SW7       29.91R
MURFREESBORO   CLEAR     76  72  87 S8        29.86R
PULASKI        MOCLDY    75  73  94 SW8       29.90R
SHELBYVILLE    PTCLDY    75  73  94 S9        29.90R
TULLAHOMA      CLOUDY    73  72  94 SW8       29.93R
WINCHESTER     CLOUDY    73  73 100 VRB3        N/A
$$


...KEY TO REMARKS...
VSB - VISIBILITY IN MILES
WCI - WIND CHILL INDEX
HX  - HEAT INDEX




USA.gov is the U.S. government's official web portal to all federal, state and local government web resources and services.